Regional Weather Roundup
Issued by NWS Sterling, VA

Home | Current Version | Previous Version | Graphics & Text | Print | Product List | Glossary On
Versions: 1 2 3 4 5 6 7 8 9 10 11 12 13 14 15 16 17 18 19 20 21 22 23 24 25 26 27 28 29 30 31 32 33 34 35 36 37 38 39 40 41 42 43 44 45 46 47 48 49
000
ASUS41 KLWX 301310
RWRLWX

REGIONAL WEATHER ROUNDUP
NATIONAL WEATHER SERVICE BALTIMORE MD/WASHINGTON DC
900 AM EDT SUN AUG 30 2015

Note: "FAIR" indicates few or no clouds below 12,000 feet
with no significant weather and/or obstructions to visibility.
 TC=TEMPERATURE CELSIUS

 * =Non NWS site. Station does not report precipitation (e.g. rain,
    snow, etc.), thunder, or fog.

DCZ001-MDZ009-015-VAZ040>042-051-053>054-301400-
WASHINGTON METRO

CITY           SKY/WX    TMP DP  RH WIND       PRES   REMARKS
WASHINGTON NAT CLOUDY    73  64  73 SW7       30.13S
DULLES         CLOUDY    70  64  81 SW3       30.13S
ANDREWS AFB    PTSUNNY   75  64  67 SW8       30.13R
FT BELVOIR     PTSUNNY   71  67  85 SW3       30.13S
QUANTICO       CLOUDY    72  63  73 SW5       30.14S
COLLEGE PARK*  PTSUNNY   73  64  73 CALM      30.12S
LEESBURG*      MOSUNNY   72  68  88 CALM      30.14S
MANASSAS*      SUNNY     68  66  94 CALM      30.13S
GAITHERSBURG*  SUNNY     72  64  78 W5        30.17S

$$

MDZ006>007-011-014-301400-
BALTIMORE METRO

CITY           SKY/WX    TMP DP  RH WIND       PRES   REMARKS
BWI AIRPORT    PTSUNNY   71  64  78 SW3       30.13R
MD SCIENCE CTR   N/A     74  63  68 MISG      30.13S
ANNAPOLIS      MOSUNNY   72  62  71 S7        30.12F
FORT MEADE*    MOSUNNY   68  64  88 CALM      30.15S

$$

MDZ012-015-019>023-301400-
MARYLAND EASTERN SHORE

CITY           SKY/WX    TMP DP  RH WIND       PRES   REMARKS
OCEAN CITY     MOSUNNY   74  65  73 W3        30.15R
SALISBURY      MOSUNNY   73  67  81 SW5       30.15R
BAY BRIDGE AP*   N/A     73  61  64 SW5       30.13S
CAMBRIDGE*     MOSUNNY   72  66  83 CALM      30.14R
EASTON*        MOSUNNY   77  68  73 SW7       30.17R

$$

MDZ017>025-301400-
SOUTHERN MARYLAND

CITY           SKY/WX    TMP DP  RH WIND       PRES   REMARKS
PATUXENT RIVER CLOUDY    72  64  76 CALM      30.14S
ST INIGOES     CLOUDY    74  64  71 S5        30.14R
LEONARDTOWN*   CLOUDY    72  61  68 CALM      30.16R

$$

MDZ003>005-301400-
NORTH CENTRAL MARYLAND

CITY           SKY/WX    TMP DP  RH WIND       PRES   REMARKS
FREDERICK*     SUNNY     72  68  88 S5        30.16R
HAGERSTOWN APT SUNNY     72  64  76 S5        30.14S
WESTMINSTER*   SUNNY     70  64  83 SW6       30.14S

$$

MDZ501>502-301400-
WESTERN MARYLAND

CITY           SKY/WX    TMP DP  RH WIND       PRES   REMARKS
OAKLAND*       MOSUNNY   64  59  82 W5        30.25R
CUMBERLAND*    MOSUNNY   66  61  82 CALM      30.20R

$$

VAZ025>031-301400-
SHENANDOAH VALLEY

CITY           SKY/WX    TMP DP  RH WIND       PRES   REMARKS
WINCHESTER*    PTSUNNY   73  63  68 SW3       30.14S
FRONT ROYAL*   FAIR      73  63  68 S5        30.14S
LURAY*         FAIR      64  64 100 CALM      30.17R
NEW MARKET*    FAIR      67  63  85 CALM      30.16S
STAUNTON*      CLOUDY    70  63  80 CALM      30.20S
WAYNESBORO*    FAIR      72  63  73 MISG      30.19S

$$

WVZ021-048>050-054>055-301400-
EASTERN WEST VIRGINIA PANHANDLE

CITY           SKY/WX    TMP DP  RH WIND       PRES   REMARKS
MARTINSBURG    MOSUNNY   70  64  81 CALM      30.14S
PETERSBURG*    PTSUNNY   64  61  90 CALM      30.18R

$$

VAZ036>039-050-301400-
CENTRAL FOOTHILLS

CITY           SKY/WX    TMP DP  RH WIND       PRES   REMARKS
CHARLOTTESVILL CLOUDY    69  64  84 CALM      30.14S
CULPEPER*      CLOUDY    67  64  91 CALM      30.14S
ORANGE*        CLOUDY    70  64  83 S3        30.15S
GORDONSVILLE*  FAIR      69  65  86 CALM      30.14R
WARRENTON*     FAIR      70  66  88 CALM      30.13S

$$

VAZ055>057-301400-
NORTH AND CENTRAL PIEDMONT

CITY           SKY/WX    TMP DP  RH WIND       PRES   REMARKS
FREDERICKSBRG* CLOUDY    73  65  77 SW3       30.13S
STAFFORD*      CLOUDY    70  64  80 CALM      30.17S

$$

NCZ024-NYZ072-PAZ021-071-VAZ022-071-301400-
OTHER REGIONAL OBSERVATIONS

CITY           SKY/WX    TMP DP  RH WIND       PRES   REMARKS
NEW YORK CITY  SUNNY     75  62  64 W5        30.13S
PHILADELPHIA   MOSUNNY   75  65  70 SW8       30.13S
PITTSBURGH     PTSUNNY   68  65  90 CALM      30.14R
ROANOKE        CLOUDY    70  63  78 CALM      30.21R
RICHMOND       CLOUDY    74  61  63 SW5       30.15S
RALEIGH        PTSUNNY   76  62  62 CALM      30.17S

$$

ANZ530>537-301400-
MARINE OBSERVATIONS

STATION/POSITION TIME  TEMP    WIND        PRES
                       AIR SEA DIR/SP/G
                 (UTC) (F)     (DEG/KT/KT) (MB)
THOMAS PT LIGHT  1300   72 78  210/ 10/ 11 1020.8

$$



USA.gov is the U.S. government's official web portal to all federal, state and local government web resources and services.